Regional Weather Roundup
Issued by NWS

Home | Current Version | Previous Version | Text Only | Print | Product List | Glossary Off
Versions: 1 2 3 4 5 6 7 8 9 10 11 12 13 14 15 16 17 18 19 20 21 22 23 24 25 26 27 28 29 30 31 32 33 34 35 36 37 38 39 40 41 42 43 44 45 46 47 48 49 50

000
ASUS43 KIND 210259
RWRIN

WEATHER ROUNDUP FOR INDIANA
NATIONAL WEATHER SERVICE INDIANAPOLIS IN
1100 PM EDT FRI APR 20 2018

NOTE: "FAIR" INDICATES FEW OR NO CLOUDS BELOW 12,000 FEET WITH NO
SIGNIFICANT WEATHER AND/OR OBSTRUCTIONS TO VISIBILITY.

* - STATION DOES NOT REPORT WEATHER SUCH AS PRECIPITATION OR FOG.

+ - STATION NOT QUALITY CONTROLLED BY THE NATIONAL WEATHER SERVICE.
    USE DATA WITH CAUTION...ESPECIALLY DEWPOINT AND RELATIVE
    HUMIDITY OBSERVATIONS.

INZ001>003-010>013-019-020-210400-
NORTHWEST INDIANA

CITY           SKY/WX    TMP DP  RH WIND       PRES   REMARKS
GARY /AIRPORT/ PTCLDY    37  30  75 CALM      30.45S
KNOX *+        FAIR      37  23  56 N6        30.44S WCI  33
MONTICELLO +   FAIR      47  21  36 N6        30.42S
RENSSELAER +   FAIR      41  14  33 NE6       30.44R

$$

LMZ046-743>745-210400-
SOUTHERN LAKE MICHIGAN

STATION/POSITION TIME  TEMP    WIND        PRES    WAVE
                       AIR SEA DIR/SP/G            HT
                 (UTC) (F)     (DEG/KT/KT) (MB)    (FT)
BURNS HARBOR     0240   44      80/  8/  9 1031.2S
MICHIGAN CITY    0230   42      50/  8/  8   N/A

$$

INZ004-005-014>016-021>024-210400-
NORTH CENTRAL INDIANA

CITY           SKY/WX    TMP DP  RH WIND       PRES   REMARKS
GOSHEN         FAIR      42  26  53 N3        30.44R
ROCHESTER +    FAIR      45  28  53 CALM      30.44S
SOUTH BEND     FAIR      37  18  46 N6        30.45R WCI  32
WARSAW +       FAIR      45  28  53 N3        30.43S

$$

INZ006>009-017-018-025>027-210400-
NORTHEAST INDIANA

CITY           SKY/WX    TMP DP  RH WIND       PRES   REMARKS
ANGOLA *+      FAIR      41  28  60 CALM      30.42S
FORT WAYNE     FAIR      45  29  53 CALM      30.43S

$$

INZ028-029-035-036-043>045-051>053-210400-
WEST CENTRAL INDIANA

CITY           SKY/WX    TMP DP  RH WIND       PRES   REMARKS
GREENCASTLE +  FAIR      45  25  45 CALM      30.41S
LAFAYETTE      FAIR      45  24  43 CALM      30.41S
TERRE HAUTE    FAIR      44  31  60 N3        30.40R

$$

INZ030>032-037>040-046>048-054>057-064-065-210400-
CENTRAL INDIANA

CITY           SKY/WX    TMP DP  RH WIND       PRES   REMARKS
INDIANAPOLIS   FAIR      50  22  33 E6        30.41R
-EAGLE CREEK   FAIR      47  25  42 N3        30.41R
KOKOMO +       FAIR      42  30  62 N3        30.43R
MT COMFORT *+  FAIR      45  32  61 E6        30.42R
SHELBYVILLE    FAIR      45  28  51 E7        30.40S
ZIONSVILLE +   FAIR      42  29  59 CALM      30.42R

$$

INZ033-034-041-042-049-050-058-059-210400-
EAST CENTRAL INDIANA

CITY           SKY/WX    TMP DP  RH WIND       PRES   REMARKS
MUNCIE         FAIR      44  27  51 E5        30.42S
RICHMOND +     FAIR      41  28  60 NE5       30.43S

$$

INZ060-061-067>069-081>083-085>088-210400-
SOUTHWEST INDIANA

CITY           SKY/WX    TMP DP  RH WIND       PRES   REMARKS
EVANSVILLE     FAIR      50  31  48 NE7       30.36R
HUNTINGBURG +  FAIR      52  28  39 NE9       30.37R

$$

INZ062-063-066-070>080-084-089>092-210400-
SOUTH CENTRAL AND SOUTHEAST INDIANA

CITY           SKY/WX    TMP DP  RH WIND       PRES   REMARKS
BLOOMINGTON    FAIR      48  24  39 NE5       30.39S
FRENCH LICK *+ FAIR      52  18  25 NE8       30.37S

$$




USA.gov is the U.S. government's official web portal to all federal, state and local government web resources and services.